Tracking 21473 objects as of 20-Sep-2020
HD Live streaming from Space Station
objects crossing your sky now

EXOCUBE

Track EXOCUBE now!
10-day predictions
EXOCUBE is classified as:


NORAD ID: 40380
Int'l Code: 2015-003E
Perigee: 434.2 km
Apogee: 624.7 km
Inclination: 99.1 °
Period: 95.1 minutes
Semi major axis: 6900 km
RCS: Unknown
Launch date: January 31, 2015
Source: United States (US)
Launch site: AIR FORCE WESTERN TEST RANGE (AFWTR)

Uplink (MHz):
Downlink (MHz): 437.270
Beacon (MHz): 437.270
Mode: 9600bps FSK CW
Call sign: KK6HGC XO3
Status: Active

aabbcc
Your satellite tracking list
Your tracking list is empty




NASA's NSSDC Master Catalog

Two Line Element Set (TLE):
1 40380U 15003E   20263.76621965  .00000767  00000-0  37628-4 0  9999
2 40380  99.1003 330.0975 0138003  41.9054 319.2636 15.14568746310836
Source of the keplerian elements: Caltech